Location: Unspecified
(0.0000°N, 0.0000°E)
Time: 20:23:52
(UTC+00:00)

COSMOS 2496 - Visible Passes

Search period start: 20 May 2019 00:00
Search period end: 30 May 2019 00:00
Orbit: 1479 x 1509 km, 82.4° (Epoch: 19 May)

Date Brightness Start Highest point End Pass type
(mag) Time Alt. Az. Time Alt. Az. Time Alt. Az.
20 May ? 02:11:35 25° E 02:11:35 25° E 02:17:56 10° NE visible
20 May ? 04:07:34 40° W 04:07:38 40° W 04:15:38 10° NNW visible
21 May ? 03:19:19 75° NNW 03:19:19 75° NNW 03:27:10 10° N visible
22 May ? 02:31:00 41° ENE 02:31:00 41° ENE 02:37:23 10° NNE visible
22 May ? 04:26:59 21° WNW 04:26:59 21° WNW 04:31:56 10° NW visible
23 May ? 01:42:38 17° ENE 01:42:38 17° ENE 01:45:47 10° NE visible
23 May ? 03:38:36 42° NW 03:38:36 42° NW 03:44:47 10° NNW visible
24 May ? 02:50:11 47° NNE 02:50:11 47° NNE 02:55:57 10° N visible
25 May ? 02:01:43 26° NE 02:01:43 26° NE 02:05:46 10° NNE visible
25 May ? 03:57:41 23° NW 03:57:41 23° NW 04:01:33 10° NNW visible
26 May ? 03:09:11 35° NNW 03:09:11 35° NNW 03:13:49 10° N visible
27 May ? 02:20:38 31° NNE 02:20:38 31° NNE 02:24:37 10° NNE visible
27 May ? 04:16:36 10° WNW 04:16:36 10° WNW 04:16:41 10° WNW visible
28 May ? 01:32:04 16° NE 01:32:04 16° NE 01:33:58 10° NE visible
28 May ? 03:28:01 21° NW 03:28:01 21° NW 03:30:58 10° NNW visible
29 May ? 02:39:25 27° N 02:39:25 27° N 02:42:45 10° N visible
